Weather History for Paducah, KY

Change the Weather History Date:

Tuesday, July 10, 2012

  Actual Average Record
Temperature  
Mean Temperature 82 °F 79 °F  
Max Temperature 92 °F 89 °F 101 °F (1966)
Min Temperature 72 °F 69 °F 51 °F (1963)
Degree Days  
Heating Degree Days 0 0  
Month to date heating degree days 0 0  
Since 1 June heating degree days 7 4  
Since 1 July heating degree days 0 0  
Cooling Degree Days 17 14  
Month to date cooling degree days 223 140  
Year to date cooling degree days 962 632  
Since 1 June cooling degree days 579 460  
Growing Degree Days 32 (Base 50)    
Moisture  
Dew Point 70 °F    
Average Humidity 66    
Maximum Humidity 93    
Minimum Humidity 38    
Precipitation  
Precipitation 0.03 in 0.15 in 1.29 in (1986)
Month to date precipitation 0.97 1.48  
Year to date precipitation 12.56 26.76  
Snow  
Snow 0.00 in 0.00 in 0.00 in (2002)
Month to date snowfall 0.0 0.0  
Since 1 June snowfall 0.0 0.0  
Since 1 July snowfall 0.0 0.0  
Snow Depth 0.00 in    
Sea Level Pressure  
Sea Level Pressure 29.95 in    
Wind  
Wind Speed 5 mph (East)    
Max Wind Speed 16 mph    
Max Gust Speed 21 mph    
Visibility 8 miles    
Events      
T = Trace of Precipitation, MM = Missing Value Source: NWS Daily Summary

Daily Weather History Graph

Daily Weather History Graph

Search for Another Location

Airport:

Trip Planner

Search our weather history database for the weather conditions in past years. The results will help you decide how hot, cold, wet, or windy it might be!

Date:

Astronomy

Jul. 10, 2012 Rise Set
Actual Time 5:44 AM CDT 8:16 PM CDT
Civil Twilight 5:13 AM CDT 8:46 PM CDT
Nautical Twilight 4:36 AM CDT 9:24 PM CDT
Astronomical Twilight 3:54 AM CDT 10:06 PM CDT
Moon No Moon Rise 12:57 PM CDT (7/10)
Length of Visible Light 15h 33m
Length of Day
14h 32m
Waning Gibbous, 54% of the Moon is Illuminated
Jul 10
Waning Gibbous
Jul 10
Last Quarter
Jul 18
New
Jul 26
First Quarter
Aug 1
Full

Hourly Weather History & Observations

Time (CDT) Temp. Heat Index Dew Point Humidity Pressure Visibility Wind Dir Wind Speed Gust Speed Precip Events Conditions
12:53 AM 77.0 °F - 71.1 °F 82% 29.96 in 6.0 mi ESE 6.9 mph - N/A   Haze
1:53 AM 73.9 °F - 70.0 °F 87% 29.95 in 7.0 mi SE 3.5 mph - N/A   Clear
2:53 AM 73.0 °F - 70.0 °F 90% 29.94 in 7.0 mi Calm Calm - N/A   Mostly Cloudy
3:53 AM 73.0 °F - 71.1 °F 93% 29.95 in 5.0 mi Calm Calm - N/A   Mostly Cloudy
4:53 AM 73.0 °F - 70.0 °F 90% 29.94 in 5.0 mi Calm Calm - N/A   Scattered Clouds
5:53 AM 72.0 °F - 70.0 °F 93% 29.96 in 3.0 mi North 3.5 mph - N/A   Clear
6:40 AM 73.4 °F - 71.6 °F 94% 29.98 in 3.0 mi NE 3.5 mph - N/A   Mostly Cloudy
6:53 AM 73.9 °F - 71.1 °F 91% 29.97 in 3.0 mi NE 3.5 mph - N/A   Scattered Clouds
7:53 AM 78.1 °F - 71.1 °F 79% 29.98 in 6.0 mi NE 5.8 mph - N/A   Haze
9:53 AM 84.2 °F 85.6 °F 64.4 °F 51% 29.99 in 10.0 mi NE 11.5 mph - N/A   Scattered Clouds
10:53 AM 84.2 °F 87.3 °F 68.0 °F 58% 30.00 in 10.0 mi NE 5.8 mph - N/A   Partly Cloudy
11:53 AM 87.8 °F 92.6 °F 69.8 °F 55% 29.99 in 10.0 mi ENE 8.1 mph 16.1 mph N/A   Mostly Cloudy
12:53 PM 90.0 °F 92.8 °F 66.9 °F 46% 29.96 in 10.0 mi ENE 12.7 mph 16.1 mph N/A   Mostly Cloudy
1:53 PM 91.0 °F 91.9 °F 63.0 °F 39% 29.94 in 10.0 mi ENE 9.2 mph 19.6 mph N/A   Clear
2:53 PM 87.1 °F 92.0 °F 70.0 °F 57% 29.94 in 10.0 mi SE 15.0 mph - N/A   Clear
3:53 PM 90.0 °F 92.8 °F 66.9 °F 46% 29.93 in 10.0 mi Variable 5.8 mph - N/A   Clear
4:53 PM 90.0 °F 93.6 °F 68.0 °F 48% 29.92 in 10.0 mi SE 6.9 mph - N/A   Clear
5:53 PM 87.1 °F 89.9 °F 66.9 °F 51% 29.92 in 10.0 mi Variable 5.8 mph - N/A   Clear
6:53 PM 81.0 °F 85.2 °F 72.0 °F 74% 29.92 in 9.0 mi East 3.5 mph - 0.03 in   Mostly Cloudy
7:53 PM 80.1 °F 83.8 °F 72.0 °F 76% 29.93 in 10.0 mi South 3.5 mph - N/A   Clear
8:53 PM 77.0 °F - 72.0 °F 84% 29.94 in 10.0 mi South 3.5 mph - N/A   Clear
9:53 PM 77.0 °F - 70.0 °F 79% 29.96 in 10.0 mi Calm Calm - N/A   Clear
10:53 PM 75.0 °F - 71.1 °F 87% 29.97 in 10.0 mi SSE 3.5 mph - N/A   Mostly Cloudy
11:53 PM 75.9 °F - 72.0 °F 87% 29.97 in 9.0 mi Calm Calm - N/A   Overcast